Retour au catalogue

STARLINK-30435

ActifCommunicationsVLEO
NORAD 57842·PAYLOAD·🇺🇸 United States

Lancé Sep 12, 2023 depuis Vandenberg Space Force Base

Loading…

Prochains Passages (prochaines 24 heures)

TLE

FraisSource: CelesTrak SupGP

Époque: Sep 14, 2026, 22:32 UTC

1 57842C 23141C   26257.93937500 -.00018376  00000+0 -59098-3 0  2572
2 57842  53.1570 123.7952 0001263  79.1622 105.1133 15.31708833    11

Suivez STARLINK-30435 en temps réel avec AllMySat

Download on the App Store